Regional Weather Roundup
Issued by NWS Midland/Odessa, TX

Home | Current Version | Previous Version | Text Only | Print | Product List | Glossary On
Versions: 1 2 3 4 5 6 7 8 9 10 11 12 13 14 15 16 17 18 19 20 21 22 23 24 25 26 27 28 29 30 31 32 33 34 35 36 37 38 39 40 41 42 43 44 45 46 47 48 49 50
000
ASUS44 KMAF 182101
RWRMAF
MIDLAND AREA WEATHER ROUNDUP
NATIONAL WEATHER SERVICE MIDLAND TX
300 PM CST WED JAN 18 2017

...IN SOUTHWEST TEXAS AND SOUTHEAST NEW MEXICO...

CITY           SKY/WX    TMP DP  RH WIND       PRES   REMARKS
ALPINE         SUNNY     60  31  33 W16       30.09F
ANDREWS        FAIR      58  40  52 SW6       30.01F
ARTESIA        MOSUNNY   61  41  48 SW13G21   29.97F
BIG SPRING     PTSUNNY   54  44  68 W6        30.05F
CARLSBAD       MOSUNNY   61  38  42 W20       29.98F
DRYDEN           N/A     58  42  55 CALM      30.02F
FORT STOCKTON  SUNNY     60  41  49 N6        30.02F
GUAD PASS        N/A     51  37  58 W25G33    30.04
HOBBS          MOSUNNY   57  39  51 SW8G16    30.00F
MARFA          SUNNY    N/A N/A N/A MISG      30.07F
MIDLAND AIRPK  SUNNY     57  42  57 W7        30.02F
MIDLAND INTL   SUNNY     56  42  59 S7        30.01F
ODESSA         SUNNY     57  41  55 VRB3      30.02F
PECOS          SUNNY     63  40  43 W8G17     30.00F
PRESIDIO       FAIR      61  39  44 S3        30.04F
SEMINOLE       SUNNY     57  40  52 SW8       30.01F
SNYDER         CLOUDY    54  43  67 S8        30.02F
WINK           SUNNY     58  40  51 W7        30.00F
$$
...OTHER STATIONS IN TEXAS...

CITY           SKY/WX    TMP DP  RH WIND       PRES   REMARKS
ABILENE        CLOUDY    51  47  86 SW8       30.04F
AMARILLO       SUNNY     57  40  52 S18G25    29.92F
AUSTIN         CLOUDY    56  52  86 N8        30.02F
BROWNSVILLE    CLOUDY    69  59  70 N10       29.98F
CORPUS CHRISTI CLOUDY    61  55  81 NW12      29.98F
DALLAS FTW     CLOUDY    53  50  89 NW10      30.03S
DEL RIO        CLOUDY    55  45  68 N9        30.05F
EL PASO        MOSUNNY   55  37  50 W10       30.05F
HOUSTON INT    LGT RAIN  63  60  90 NW10      29.97R FOG
LUBBOCK        PTSUNNY   56  42  59 SW13      29.97F
SAN ANGELO     CLOUDY    53  46  77 W5        30.05F
SAN ANTONIO    CLOUDY    65  53  65 NW7       30.01F
WACO           CLOUDY    50  49  96 NW13      30.04F
WICHITA FALLS  NOT AVBL
$$
...OTHER LOCATIONS IN NEW MEXICO...

CITY           SKY/WX    TMP DP  RH WIND       PRES   REMARKS
ALAMAGORDO     CLOUDY    50  39  66 S8        30.07F
ALBUQUERQUE    CLOUDY    45  35  68 SW7       30.02F
CANNON AFB     MOSUNNY   54  45  73 SW21      29.93F
CLOVIS         MOSUNNY   55  39  54 SW22      29.93F
HOLLOMAN AFB   MOSUNNY   49  42  77 SW6       30.08F
ROSWELL        PTSUNNY   56  42  59 E8        29.96F
RUIDOSO        MOSUNNY   43  25  49 NW20      30.02F WCI  34
SANTA FE       CLOUDY    41  30  65 N5        29.98F WCI  38
TRUTH OR CONSE MOSUNNY   50  38  63 S9        30.02F
TUCUMCARI      SUNNY     59  31  34 SW22G32   29.85F
$$




USA.gov is the U.S. government's official web portal to all federal, state and local government web resources and services.